Temperature
20 19 18 18 17 17 17 18 17 18 17 17 17 17 17 17 17 17 17 17 16 16 16 16 16 15 15 15 15 15 15 16 16 16 16 16 16 16 16 16 16 16 16
20 18 18 18 18 17 17 17 17 18 17 17 17 17 17 17 17 16 17 16 16 16 16 15 15 15 15 15 15 15 16 16 16 16 17 17 17 16 16 16 16 16 16
20 19 18 18 18 17 17 17 17 17 17 17 17 17 17 17 17 16 16 16 16 16 15 15 15 15 15 15 15 15 15 16 16 16 17 18 18 18 17 16 16 16 16
20 19 18 18 18 18 17 17 17 17 17 17 17 17 17 17 17 17 16 16 16 15 15 15 15 15 15 15 15 15 15 15 16 16 16 16 17 18 18 17 16 16 16
21 20 19 18 18 18 17 17 17 17 17 17 17 17 17 17 17 16 16 16 16 16 15 15 15 15 15 15 15 15 15 15 16 16 16 16 16 17 17 18 17 17 16
21 20 19 18 18 17 17 17 17 17 17 17 17 17 17 17 17 17 16 16 16 15 15 15 15 15 15 15 15 14 15 15 15 15 16 16 17 17 17 18 17 17 17
21 20 19 18 18 17 17 17 17 17 17 17 17 17 17 17 17 17 16 16 16 16 16 15 15 15 15 15 15 15 15 14 14 15 15 16 16 16 17 17 18 17 17
22 21 20 19 18 18 17 17 17 17 17 17 17 17 17 17 17 17 16 16 16 16 16 16 15 15 15 15 15 14 14 14 14 14 15 15 15 16 16 16 17 17 18
22 21 20 19 18 18 18 17 17 17 17 17 17 17 17 17 17 17 17 16 16 16 16 16 15 15 15 15 15 15 14 14 14 14 14 15 15 15 15 15 16 17 18
22 21 20 20 19 18 18 17 17 17 17 17 17 17 17 17 17 17 16 16 16 16 16 16 16 16 15 15 15 15 14 14 14 14 14 14 15 15 15 15 15 15 16
22 21 20 20 19 18 18 17 17 17 17 17 17 17 17 17 17 17 17 16 16 16 16 16 16 16 16 15 15 15 14 14 14 14 14 14 14 14 15 15 15 15 15
22 21 20 19 19 18 18 18 17 17 17 17 17 17 17 17 17 17 17 17 16 16 16 16 16 16 15 16 16 15 15 14 14 14 14 14 14 14 14 14 14 15 14
22 21 20 19 19 19 18 18 17 17 17 17 17 17 17 17 17 17 17 17 16 16 16 16 16 16 16 16 16 15 15 15 14 14 14 14 14 14 14 14 14 14 14
21 20 19 19 18 18 18 17 17 17 17 17 17 17 17 17 17 17 17 16 16 16 16 16 16 16 16 15 15 15 15 15 15 14 14 14 14 14 14 14 14 14 14
20 19 19 18 18 18 17 17 17 17 17 17 17 17 17 17 17 16 16 16 16 16 16 16 16 15 15 15 15 15 15 15 15 14 14 14 14 14 14 14 14 14 14
19 19 18 18 17 17 17 17 17 17 16 16 16 16 16 16 16 16 16 16 16 16 15 15 15 15 15 15 15 15 15 15 14 14 14 14 14 14 14 14 14 14 13
18 18 17 17 17 17 17 17 16 16 16 16 16 16 16 16 16 16 15 16 16 15 15 15 15 15 15 15 15 15 15 14 14 14 14 13 13 13 13 13 14 13 13
17 17 16 16 16 16 16 16 16 16 16 16 16 15 15 15 15 15 15 15 15 15 15 14 14 14 14 14 14 14 14 13 13 13 13 13 13 13 13 13 12 12 12
16 15 15 16 15 15 15 15 15 15 15 15 15 15 15 15 15 15 15 14 14 14 14 14 13 13 13 13 13 13 13 13 12 12 12 12 12 12 12 12 12 12 12
15 15 15 15 15 14 15 15 15 14 14 14 14 14 14 14 14 14 14 14 13 13 13 13 12 12 12 12 12 12 12 12 11 11 11 11 11 11 11 11 11 11 11
14 14 14 14 14 14 14 14 14 13 13 14 13 13 13 13 13 13 13 13 12 12 12 12 11 11 11 11 11 11 11 11 10 10 10 10 10 10 10 10 10 10 10
13 13 13 13 13 13 13 13 13 13 13 13 13 13 13 12 12 12 12 12 11 11 11 11 10 10 10 10 10 10 10 10 9 9 9 9 9 9 9 9 9 9 9
12 12 12 12 12 12 12 12 12 12 12 12 12 12 12 12 11 11 11 11 11 11 10 10 10 9 9 9 9 9 9 9 9 8 8 8 8 8 8 8 8 8 7
11 11 11 11 11 11 11 12 11 11 12 11 11 11 11 11 11 10 10 10 10 10 10 9 9 9 8 8 8 8 8 8 8 7 7 7 7 7 7 7 7 7 6
11 11 11 11 11 11 11 11 11 11 11 11 10 10 10 10 10 10 10 9 9 9 9 8 8 8 8 8 7 7 7 7 7 7 7 7 7 7 7 6 6 6 5
11 11 11 11 10 10 10 11 11 11 11 10 10 10 10 9 9 9 9 8 8 8 8 8 7 7 7 6 6 6 6 6 6 6 6 6 6 6 6 5 5 5 5
Wind_Speed
8 10 11 12 13 14 13 13 14 13 11 9 9 9 8 7 7 6 7 7 6 6 5 3 4 4 3 3 4 4 5 4 3 4 4 4 3 3 3 2 3 4 4
9 11 12 13 14 14 14 13 14 13 13 10 9 7 7 7 6 6 7 7 7 7 6 4 4 4 3 4 4 3 3 4 4 4 4 4 5 5 3 3 3 3 4
11 11 12 13 13 14 14 13 14 13 13 12 9 8 7 6 6 7 7 7 7 7 5 5 4 3 4 4 4 4 5 4 4 4 3 3 2 5 5 3 3 3 3
11 11 12 12 12 12 12 13 13 13 13 12 11 12 10 9 9 8 7 8 8 7 7 6 5 4 3 3 5 4 4 4 4 4 3 3 2 2 4 5 5 4 4
11 11 12 12 12 12 12 12 13 13 13 13 14 13 11 9 8 8 9 8 8 8 7 7 6 5 3 3 2 3 4 4 5 4 5 4 3 5 4 3 4 5 5
10 11 11 11 11 11 12 12 13 13 14 14 14 14 13 11 11 10 10 9 7 8 9 8 7 6 4 4 4 3 4 3 3 4 4 5 5 5 5 4 5 5 5
10 11 11 12 12 12 12 13 14 13 13 13 13 13 13 13 13 12 10 9 8 8 9 9 8 7 5 5 5 4 3 4 4 4 4 4 4 4 4 5 4 4 4
10 11 12 12 12 13 13 13 14 13 13 14 13 12 12 11 10 11 10 10 8 8 9 10 9 8 8 7 6 5 5 4 4 5 4 4 4 4 4 5 5 5 6
9 10 11 12 12 13 13 13 14 13 13 14 13 12 12 12 11 11 10 9 8 7 9 10 10 9 9 8 7 6 6 5 6 6 6 6 4 4 4 4 5 6 6
9 9 10 11 11 11 12 12 13 13 12 13 13 11 12 12 11 10 11 9 9 8 9 10 10 10 9 9 9 7 7 7 6 5 5 5 5 4 5 5 5 6 7
9 9 9 10 10 11 12 12 12 12 12 12 12 12 12 12 12 11 11 10 9 9 10 10 10 10 10 10 9 9 8 9 8 7 7 8 7 6 6 6 6 6 6
9 9 9 10 10 11 11 11 11 12 11 11 11 11 11 11 11 11 10 10 10 10 10 10 10 10 10 10 11 11 10 10 10 9 9 9 8 8 8 7 7 7 6
9 9 9 9 9 9 10 11 11 11 11 11 11 11 10 10 10 10 10 9 9 9 9 9 10 10 10 10 10 10 10 10 10 10 10 10 9 9 9 8 8 8 8
9 9 9 8 8 8 8 9 10 11 11 11 11 10 10 10 9 9 8 9 9 9 9 9 9 9 8 9 9 10 10 10 10 9 9 10 10 10 10 9 9 9 8
9 10 9 8 7 8 7 8 8 9 10 10 10 10 9 9 8 8 7 7 7 7 7 6 6 6 6 7 8 9 10 10 10 9 9 9 7 6 7 8 8 8 9
9 9 9 8 7 7 7 8 8 8 9 9 8 8 8 7 7 7 6 6 5 5 5 5 5 4 4 1 2 7 8 8 9 8 8 7 6 6 7 8 8 8 9
8 8 8 8 7 7 7 7 8 9 9 8 7 8 8 7 6 6 6 5 5 4 4 4 3 2 1 2 2 3 5 5 5 4 4 5 4 4 6 7 10 9 9
9 9 8 9 8 9 9 9 10 10 9 9 8 8 8 8 7 6 5 4 4 4 3 3 3 3 4 5 1 1 3 2 2 2 2 3 3 3 4 6 7 7 7
10 9 10 10 10 10 11 12 12 11 10 10 9 8 8 8 8 7 6 6 6 6 6 6 6 6 8 9 5 1 1 1 0 1 1 1 1 4 5 5 6 6 6
10 10 11 12 12 11 12 13 13 12 11 10 10 9 9 9 9 9 8 7 8 8 8 9 9 10 10 12 11 6 2 2 2 2 4 7 6 6 5 4 5 5 5
12 13 13 13 12 12 13 14 13 13 12 12 12 11 11 11 11 10 9 9 9 10 10 10 10 10 10 12 13 11 5 4 4 3 3 5 8 7 6 4 3 4 6
14 14 14 13 12 12 14 15 14 12 12 13 13 12 12 11 11 11 10 9 9 10 9 9 8 7 8 10 10 11 9 7 4 3 3 4 6 4 4 3 3 5 7
14 14 15 15 13 13 14 15 13 12 13 14 13 13 12 11 10 10 9 8 7 7 7 6 6 6 6 7 7 7 6 5 3 3 3 2 2 4 3 2 3 6 5
15 15 16 16 15 14 14 13 12 12 13 13 12 11 11 11 10 8 8 8 7 7 6 6 5 5 6 7 7 5 4 3 3 4 1 7 7 5 3 4 4 4 4
14 15 15 16 16 14 14 13 12 12 13 12 11 11 11 11 11 11 10 10 10 9 7 6 6 6 6 8 10 8 7 7 7 8 5 4 4 4 4 4 4 5 5
14 15 16 16 15 14 13 12 11 11 11 10 9 9 8 8 9 10 11 15 12 14 15 15 11 9 10 7 8 8 7 8 10 8 5 5 5 6 6 6 6 6 6
Wind_Direction
181 175 173 174 173 173 178 182 179 174 172 171 173 173 174 175 173 170 164 173 173 171 191 181 171 211 188 190 184 188 179 197 190 194 183 179 190 181 186 200 206 182 191
175 173 176 179 181 180 183 186 182 178 180 179 176 177 169 173 171 169 165 177 176 177 182 186 187 186 174 186 192 210 211 183 200 224 200 189 176 191 177 178 190 193 192
181 179 182 184 184 185 186 188 187 183 183 179 172 165 161 169 170 175 175 178 180 186 187 183 196 182 205 181 198 205 215 200 195 234 243 228 198 163 166 183 181 193 201
183 182 184 187 187 186 186 186 185 184 182 181 181 180 182 184 183 182 174 175 182 187 186 187 190 202 204 170 202 193 213 223 210 196 244 298 344 247 173 185 183 187 202
185 183 185 188 188 187 185 186 183 185 184 188 189 188 191 188 179 181 172 181 181 192 192 189 189 196 199 180 201 178 224 222 233 216 205 213 223 251 259 197 183 190 193
185 183 184 183 185 188 187 185 183 185 187 190 191 193 191 188 181 183 180 187 185 193 194 196 197 201 193 179 192 197 202 235 245 254 232 226 229 230 239 236 221 209 188
184 183 184 183 183 186 189 187 184 187 187 190 191 194 192 189 188 190 190 195 192 194 193 198 198 203 198 196 195 202 214 207 213 234 241 247 255 265 258 260 245 234 207
179 182 184 185 186 186 187 185 185 189 190 192 192 194 193 194 195 197 196 199 204 200 190 197 200 204 203 204 201 211 207 208 218 227 241 247 244 251 253 260 262 248 233
173 178 181 184 186 187 185 185 184 187 190 193 192 195 196 202 201 195 202 206 207 204 196 200 202 204 204 208 207 221 215 210 223 220 212 235 230 239 249 254 261 268 265
171 171 175 179 182 183 183 183 183 186 189 193 193 194 198 202 202 200 203 209 209 209 204 204 205 206 205 206 213 218 213 218 223 237 237 239 238 230 236 242 247 256 269
168 167 169 175 180 180 181 184 184 183 188 192 192 193 195 198 200 202 207 209 213 209 210 210 209 210 211 210 212 225 216 220 223 223 223 228 248 242 235 233 238 241 248
162 163 164 167 175 179 180 182 183 184 188 188 188 192 194 196 201 204 208 209 213 214 214 216 216 218 220 217 216 223 222 223 225 225 226 229 226 229 245 244 242 243 248
159 158 160 163 168 175 179 180 182 184 185 184 186 188 191 194 201 205 204 206 210 214 217 217 221 225 227 224 224 225 228 229 231 230 229 231 233 231 235 239 245 242 236
156 155 153 156 159 163 169 175 180 181 181 180 182 184 189 192 196 199 202 206 210 213 218 222 225 228 231 231 230 228 230 231 232 233 233 234 234 235 238 238 243 248 250
155 153 151 151 155 157 161 166 171 173 174 176 177 178 183 185 186 192 197 199 205 213 216 218 221 229 236 239 237 234 231 229 231 231 233 235 237 252 253 255 247 243 246
154 150 146 146 149 150 152 154 156 158 160 164 166 166 166 169 170 172 174 177 185 199 203 209 211 218 236 221 236 248 245 236 232 231 231 231 225 234 236 262 274 274 259
143 140 141 140 141 141 142 140 138 138 138 140 148 150 149 150 154 159 164 167 170 179 186 187 185 178 38 71 173 231 249 244 241 237 240 245 238 236 248 236 234 247 249
136 131 129 127 127 125 124 124 122 121 120 118 121 131 133 134 136 136 135 135 133 130 126 109 98 82 47 45 47 228 225 245 259 260 258 259 283 302 297 271 260 255 249
122 120 119 117 114 114 115 113 110 108 106 104 102 105 110 111 110 108 105 100 98 93 90 83 77 72 53 39 32 353 153 145 91 4 24 356 9 23 341 286 274 272 271
109 109 109 107 106 108 111 108 104 101 97 95 92 91 93 98 97 93 90 89 89 87 84 77 70 68 59 43 38 20 44 50 48 63 69 59 44 30 357 313 297 290 298
108 106 103 100 101 105 105 100 96 93 93 93 90 87 87 89 91 91 91 94 94 92 88 84 77 69 60 51 41 32 41 39 40 36 34 51 49 34 16 348 340 331 315
108 106 101 96 95 99 101 97 93 94 94 91 87 84 83 84 88 90 91 93 98 99 95 91 85 77 68 56 50 44 41 20 41 29 18 42 37 15 354 352 360 317 294
108 105 103 98 93 92 96 96 96 98 96 92 89 87 85 83 85 88 91 91 89 90 90 89 84 75 67 69 72 67 58 30 28 33 65 13 310 286 254 172 266 281 286
109 108 103 98 93 92 92 95 99 100 98 96 95 94 91 86 77 72 72 71 69 75 77 73 71 71 62 41 27 23 30 27 13 2 214 207 225 247 272 272 266 290 314
106 105 102 100 97 95 93 92 94 97 97 96 96 94 90 87 80 70 55 64 55 47 51 58 54 42 51 36 18 10 11 0 358 328 311 323 331 326 332 329 330 324 320
108 105 102 99 97 94 90 87 89 93 96 98 98 98 99 99 101 99 85 60 68 68 61 50 47 68 59 41 25 18 2 337 320 312 334 345 341 336 337 333 332 332 334
Height
1495 1498 1500 1503 1506 1509 1512 1517 1521 1525 1529 1532 1536 1540 1543 1546 1549 1551 1552 1554 1555 1556 1557 1559 1559 1560 1562 1562 1563 1564 1565 1567 1568 1570 1571 1571 1572 1573 1573 1574 1575 1576 1576
1494 1496 1498 1501 1503 1507 1510 1514 1518 1522 1526 1530 1534 1538 1542 1545 1547 1549 1550 1552 1554 1555 1557 1557 1559 1560 1560 1561 1562 1563 1565 1566 1567 1569 1569 1570 1572 1572 1572 1573 1574 1574 1575
1491 1494 1496 1499 1502 1505 1508 1511 1515 1519 1524 1528 1532 1535 1539 1543 1545 1548 1549 1551 1552 1554 1556 1556 1558 1558 1560 1561 1561 1562 1564 1566 1566 1567 1569 1569 1569 1570 1572 1572 1573 1573 1574
1489 1492 1494 1497 1500 1503 1506 1509 1513 1517 1521 1525 1529 1533 1536 1540 1543 1546 1548 1549 1551 1553 1554 1555 1556 1557 1559 1559 1560 1561 1563 1564 1566 1566 1567 1568 1568 1569 1570 1571 1572 1572 1573
1487 1490 1493 1495 1498 1501 1504 1507 1510 1514 1518 1522 1526 1530 1534 1538 1541 1544 1546 1548 1550 1551 1553 1554 1555 1556 1558 1558 1559 1560 1561 1563 1565 1566 1567 1567 1568 1569 1569 1569 1571 1571 1572
1485 1488 1491 1494 1496 1499 1502 1505 1508 1511 1515 1519 1523 1527 1531 1535 1538 1541 1544 1546 1548 1550 1551 1553 1554 1555 1557 1557 1558 1559 1560 1561 1562 1564 1565 1566 1567 1568 1568 1568 1569 1570 1570
1483 1486 1489 1492 1494 1497 1499 1502 1505 1509 1513 1516 1520 1524 1528 1532 1535 1539 1542 1545 1547 1549 1550 1552 1553 1554 1555 1556 1557 1557 1559 1560 1560 1562 1564 1565 1565 1566 1567 1567 1567 1568 1568
1481 1484 1486 1489 1492 1494 1497 1500 1503 1506 1510 1514 1517 1522 1526 1529 1533 1536 1540 1542 1545 1547 1549 1550 1551 1553 1554 1555 1555 1557 1558 1558 1559 1560 1561 1562 1563 1564 1565 1566 1566 1566 1566
1479 1482 1485 1487 1490 1492 1495 1498 1501 1504 1508 1511 1515 1519 1523 1526 1530 1533 1537 1540 1543 1545 1546 1548 1549 1551 1552 1553 1554 1556 1556 1556 1557 1559 1559 1560 1561 1562 1563 1563 1564 1565 1564
1478 1480 1483 1486 1488 1490 1493 1496 1499 1502 1505 1509 1513 1517 1520 1524 1527 1531 1534 1537 1540 1542 1544 1546 1547 1549 1550 1551 1552 1553 1554 1554 1555 1556 1557 1557 1560 1560 1560 1561 1561 1562 1563
1476 1479 1482 1484 1487 1489 1492 1494 1497 1500 1503 1507 1510 1514 1518 1521 1525 1528 1531 1534 1537 1539 1541 1543 1545 1546 1548 1549 1549 1551 1552 1552 1553 1554 1554 1555 1556 1557 1558 1558 1559 1559 1560
1475 1478 1480 1483 1485 1488 1490 1493 1495 1498 1501 1504 1508 1511 1515 1518 1522 1525 1528 1531 1534 1536 1538 1540 1542 1544 1545 1546 1547 1548 1549 1549 1550 1551 1551 1552 1553 1553 1554 1555 1556 1556 1556
1474 1477 1480 1482 1484 1486 1489 1491 1494 1496 1499 1502 1505 1508 1512 1515 1518 1522 1525 1527 1530 1533 1535 1537 1538 1540 1542 1543 1544 1545 1545 1546 1547 1548 1548 1549 1550 1550 1551 1551 1552 1553 1553
1473 1476 1478 1481 1483 1485 1487 1490 1493 1495 1498 1500 1503 1506 1509 1513 1516 1519 1521 1524 1527 1529 1531 1533 1535 1536 1538 1539 1540 1541 1541 1542 1543 1543 1544 1545 1545 1546 1546 1547 1547 1548 1549
1473 1475 1477 1480 1482 1484 1486 1489 1491 1494 1497 1499 1501 1504 1507 1510 1513 1516 1518 1521 1523 1525 1527 1529 1531 1532 1534 1535 1536 1537 1537 1538 1538 1539 1539 1540 1541 1541 1542 1543 1544 1544 1544
1472 1474 1477 1479 1481 1483 1485 1488 1490 1492 1495 1497 1500 1502 1505 1508 1511 1513 1515 1517 1520 1522 1524 1525 1527 1528 1529 1530 1531 1532 1533 1533 1534 1534 1535 1535 1535 1536 1537 1537 1538 1538 1539
1471 1474 1476 1478 1480 1482 1484 1487 1489 1491 1494 1496 1498 1501 1503 1506 1509 1511 1513 1515 1517 1519 1521 1522 1523 1524 1525 1525 1526 1527 1527 1528 1529 1529 1529 1530 1531 1531 1531 1532 1532 1532 1532
1471 1473 1476 1478 1480 1482 1484 1487 1489 1491 1493 1495 1497 1499 1502 1505 1508 1510 1512 1513 1515 1516 1518 1519 1520 1520 1521 1522 1522 1523 1523 1524 1524 1524 1525 1525 1525 1525 1526 1526 1526 1526 1526
1471 1474 1476 1478 1480 1483 1485 1487 1490 1492 1494 1496 1499 1500 1502 1504 1507 1509 1510 1512 1513 1515 1516 1517 1517 1518 1518 1519 1519 1519 1520 1520 1520 1521 1520 1520 1520 1520 1520 1521 1520 1520 1520
1472 1474 1477 1479 1481 1484 1487 1489 1491 1493 1495 1498 1500 1502 1503 1505 1507 1508 1510 1511 1512 1514 1515 1516 1516 1517 1517 1517 1517 1517 1518 1518 1518 1517 1516 1516 1515 1515 1515 1515 1515 1515 1514
1474 1476 1478 1481 1484 1487 1489 1490 1493 1495 1497 1499 1501 1503 1505 1506 1508 1509 1511 1512 1513 1514 1515 1516 1516 1516 1516 1516 1516 1516 1516 1516 1516 1516 1515 1513 1512 1512 1512 1511 1511 1510 1509
1477 1479 1481 1483 1487 1489 1491 1493 1495 1498 1500 1501 1503 1505 1507 1508 1510 1511 1513 1514 1514 1515 1515 1516 1517 1517 1517 1516 1516 1515 1515 1515 1515 1514 1513 1511 1510 1509 1509 1508 1507 1506 1505
1479 1482 1484 1487 1490 1493 1495 1496 1498 1501 1503 1504 1506 1507 1509 1510 1512 1513 1515 1516 1516 1517 1518 1518 1519 1518 1518 1517 1516 1516 1515 1514 1513 1512 1511 1509 1508 1507 1506 1505 1503 1502 1502
1483 1486 1488 1490 1493 1497 1499 1500 1502 1504 1506 1507 1509 1510 1512 1513 1514 1515 1517 1517 1518 1519 1519 1519 1520 1519 1518 1517 1516 1516 1515 1514 1513 1511 1509 1507 1506 1505 1504 1503 1502 1500 1499
1488 1490 1492 1495 1498 1501 1503 1505 1506 1508 1509 1510 1512 1514 1515 1515 1516 1517 1517 1518 1519 1519 1520 1520 1520 1519 1518 1516 1515 1514 1513 1512 1510 1509 1509 1508 1507 1505 1503 1502 1500 1498 1496
1492 1495 1497 1500 1502 1505 1507 1508 1510 1511 1513 1514 1516 1517 1518 1519 1519 1519 1519 1519 1520 1520 1520 1519 1518 1517 1517 1515 1514 1513 1511 1510 1508 1508 1508 1506 1505 1503 1501 1499 1497 1496 1494